Wind_Speed
3 2 1 2 3 3 4 6 8 10 12 13 13 12 11 11 11 11 11 11 11 12 12 12 12 11 11 10 9 8 7 7 6 6 6 6 6 5 5 6 7 8 8
1 1 1 1 1 1 3 6 7 9 12 13 13 12 11 10 9 10 10 10 10 11 11 12 13 12 11 9 8 8 7 6 5 5 4 4 4 4 4 3 4 4 4
1 1 1 3 3 3 4 6 8 10 12 12 12 12 11 10 9 9 9 9 9 9 10 11 12 12 11 9 8 7 6 6 6 5 4 3 2 2 3 2 1 1 1
1 1 2 3 4 4 6 8 10 11 12 12 12 11 12 11 11 10 10 9 9 9 10 12 13 12 10 9 8 7 5 5 5 5 4 3 2 1 0 1 1 1 2
2 2 3 4 5 5 6 8 10 11 11 12 12 11 12 12 11 11 10 10 10 10 11 13 14 13 10 9 9 8 7 5 4 4 4 4 4 4 3 2 1 0 2
3 4 5 6 6 7 7 9 10 11 12 12 12 12 12 12 12 12 12 11 12 12 13 13 13 12 11 9 9 9 9 7 6 5 5 5 5 4 5 5 4 3 2
4 4 5 6 6 7 8 9 11 13 14 14 14 14 14 14 14 14 14 14 14 14 14 13 13 12 11 10 10 10 10 10 9 8 7 7 6 6 6 7 7 6 5
3 4 5 7 8 10 11 13 14 15 16 17 17 17 17 17 17 18 18 18 18 17 17 15 14 13 13 12 12 11 11 11 11 11 10 10 9 7 7 7 8 9 9
4 6 7 9 11 12 14 15 17 18 19 19 19 19 19 20 21 21 22 21 21 21 20 19 18 17 16 16 15 15 14 14 13 13 13 13 12 11 10 9 9 10 10
8 10 12 14 15 17 18 19 20 21 22 22 23 23 23 24 24 25 26 26 25 25 24 23 22 21 21 21 20 19 19 18 17 16 16 16 15 14 13 12 11 11 11
14 15 17 18 20 21 23 23 23 24 24 26 27 28 28 28 29 30 30 30 30 30 30 29 28 27 26 26 26 25 23 23 22 21 20 19 19 18 16 16 15 13 13
19 20 21 21 24 25 25 26 27 27 27 27 28 29 31 32 32 33 33 34 34 34 34 34 33 32 31 31 31 30 28 28 27 26 24 23 24 22 20 19 18 17 16
23 25 26 27 28 29 29 28 29 30 29 29 30 30 31 32 33 34 34 35 36 36 36 36 37 36 36 35 35 34 33 32 32 31 29 28 28 27 24 22 21 20 19
25 27 29 31 32 32 32 32 32 31 31 30 30 30 30 30 31 32 33 34 35 36 36 37 37 38 38 38 38 37 36 36 35 34 32 31 31 31 30 27 25 24 23
28 31 32 34 34 35 34 33 33 32 31 31 30 30 30 30 30 30 30 31 32 33 35 35 36 37 37 37 37 35 34 31 32 34 34 33 33 33 32 31 30 29 27
33 34 36 36 36 36 35 33 32 31 31 32 32 31 31 30 30 29 29 29 29 29 29 29 29 29 30 30 28 28 29 30 28 30 33 33 33 33 33 34 34 33 32
38 38 39 39 37 36 34 32 32 32 33 32 32 31 31 30 30 29 28 27 27 27 26 26 26 27 28 29 29 30 28 28 28 29 30 30 32 33 32 33 33 34 35
42 42 41 40 36 34 33 33 34 34 33 32 32 32 31 31 30 28 27 26 25 24 25 25 26 27 27 28 28 29 29 29 27 28 28 29 30 30 30 30 30 30 32
46 43 40 39 36 35 34 34 34 34 33 32 32 32 31 30 28 27 26 24 22 22 22 22 23 24 25 26 28 29 30 30 29 29 28 29 29 29 29 29 29 28 28
47 42 38 37 37 36 34 34 34 34 32 31 30 30 29 28 26 24 23 21 20 19 18 18 18 19 21 23 25 27 29 30 31 30 29 28 27 27 26 27 28 27 27
44 40 38 37 37 37 35 35 35 33 31 30 30 29 28 26 24 21 19 17 16 15 15 15 16 17 19 22 24 25 28 29 31 31 31 30 28 26 25 25 26 27 27
42 39 38 37 36 36 36 36 35 33 31 30 29 27 26 23 20 18 17 16 15 15 16 16 16 17 20 22 24 25 26 28 31 32 32 31 29 28 26 25 25 26 28
32 31 34 35 36 36 36 36 34 32 31 29 27 25 23 21 19 18 19 19 19 19 18 18 17 18 19 22 25 27 27 26 29 31 32 32 31 30 28 27 26 25 27
23 22 26 31 34 36 36 35 33 31 29 28 25 23 22 21 21 21 22 22 22 22 21 20 20 20 21 22 26 28 29 29 28 28 30 31 31 30 30 29 28 26 26
33 33 30 32 34 35 35 34 32 30 28 27 25 24 23 23 23 24 25 25 24 24 24 23 23 23 23 24 25 27 28 29 29 28 26 29 30 30 30 30 30 29 26
37 36 37 36 35 34 34 32 31 29 28 27 27 27 27 27 27 27 28 28 28 27 27 26 25 26 26 26 27 27 27 28 29 29 26 26 28 29 30 29 29 30 28
Wind_Direction
102 89 80 85 78 56 18 1 356 353 352 353 355 359 4 10 13 16 22 28 31 30 25 19 15 15 18 22 21 16 11 10 18 32 49 65 76 81 79 74 67 69 82
125 132 256 278 296 321 325 328 331 332 334 337 340 346 349 353 359 5 10 17 23 25 22 16 9 2 0 5 11 13 10 4 356 3 19 42 63 74 83 87 79 68 73
114 135 250 263 267 276 291 303 311 318 323 325 326 330 334 337 340 348 356 2 8 11 8 4 358 352 344 341 346 354 1 3 358 348 344 353 24 64 76 91 113 117 82
184 209 246 251 257 271 286 296 303 310 317 320 318 317 323 328 330 334 341 347 350 351 348 345 344 342 334 326 322 325 332 339 346 346 337 316 288 258 132 97 106 222 227
224 248 261 260 262 273 286 296 302 308 313 317 316 314 316 320 323 325 328 332 335 335 335 334 334 335 331 321 313 307 306 306 311 325 331 323 292 263 244 232 219 246 249
266 278 285 286 288 293 299 304 307 309 312 313 312 311 310 311 313 316 319 321 323 325 327 329 331 333 334 326 317 307 298 291 287 292 303 318 318 297 266 249 244 245 252
309 321 321 320 319 319 317 316 314 311 310 308 306 304 303 303 304 306 310 314 315 318 321 325 329 331 331 329 322 313 304 294 285 280 283 293 304 312 295 266 252 247 246
335 336 335 330 327 325 323 320 316 312 309 304 301 298 297 298 300 301 304 307 309 311 313 315 318 321 322 322 319 315 309 302 294 285 280 281 284 291 296 284 264 253 249
322 318 319 320 320 321 319 315 310 307 304 302 298 294 293 293 295 296 297 298 300 302 304 305 307 307 308 309 309 308 306 301 296 292 287 283 282 282 281 282 275 263 255
309 313 315 317 318 319 318 313 307 302 298 295 293 291 288 288 289 289 290 291 292 293 293 294 295 296 297 297 297 298 298 297 293 290 288 286 285 282 279 274 272 270 263
307 312 317 320 320 320 319 316 310 303 298 293 289 287 285 284 284 284 285 286 287 287 287 287 287 286 287 287 288 288 289 290 289 286 283 282 282 282 280 275 269 265 263
308 312 316 317 318 318 317 315 310 305 300 294 290 286 284 282 280 280 280 282 283 283 283 283 282 281 280 280 280 280 281 281 281 280 277 276 276 276 277 274 270 265 260
309 313 315 315 316 314 312 311 308 304 301 297 294 291 286 282 278 277 277 277 279 280 281 281 281 279 277 276 274 273 273 272 273 273 272 271 270 271 271 271 268 265 261
305 309 311 313 315 313 312 310 308 305 301 298 296 293 290 286 282 280 279 278 277 277 277 277 278 279 278 276 275 274 273 271 271 270 269 267 268 266 265 265 264 260 258
300 304 307 310 310 310 309 307 306 306 304 301 298 297 295 293 289 286 282 281 279 278 276 275 276 279 281 282 280 278 277 280 276 275 270 267 268 268 265 264 262 256 252
298 300 303 305 305 305 304 304 305 305 304 301 299 297 295 294 292 288 286 285 283 284 284 284 286 288 289 290 288 286 285 283 282 278 275 270 268 270 268 265 263 258 251
294 296 298 299 300 299 299 301 303 304 303 301 299 296 295 294 292 290 287 285 284 284 284 288 289 291 292 292 292 292 290 287 284 282 280 276 273 271 272 270 268 263 256
289 291 293 293 293 294 296 298 301 302 301 299 296 295 294 293 292 290 286 284 283 283 284 285 287 289 290 291 292 292 292 291 290 286 283 280 278 278 278 273 269 268 259
285 285 286 287 287 289 292 298 301 302 300 296 294 294 293 291 289 286 283 283 282 282 284 286 289 293 294 296 295 295 293 291 290 287 285 282 280 280 278 273 270 268 263
279 279 279 280 284 288 293 298 300 300 298 295 294 293 291 288 285 281 280 281 280 282 285 289 294 299 303 304 304 302 298 294 289 285 282 279 278 277 275 272 267 264 261
268 269 271 275 281 286 293 297 299 298 296 295 294 291 288 284 280 277 275 275 277 281 286 291 298 305 310 314 314 310 304 297 290 284 279 275 273 272 272 271 268 262 257
260 261 264 272 280 286 292 296 298 297 295 293 292 288 282 277 272 269 271 273 275 278 283 289 299 307 313 318 321 321 314 303 294 287 281 275 270 268 267 267 266 263 257
253 253 262 271 278 285 292 295 295 295 293 291 287 282 274 268 265 267 271 273 274 274 278 283 291 301 309 315 321 323 322 313 302 292 284 276 269 265 265 265 264 263 259
276 286 281 283 285 288 289 292 293 291 290 288 284 278 268 262 263 268 272 275 275 274 276 280 286 295 303 309 316 321 322 318 311 299 288 278 268 262 260 261 262 263 258
300 302 299 293 291 291 290 289 290 290 289 285 280 274 267 262 263 268 272 274 274 274 276 281 287 293 298 303 309 316 320 319 314 307 294 281 270 261 256 257 260 260 258
301 298 301 299 293 290 290 289 288 287 287 285 281 274 269 266 265 267 270 273 273 273 276 280 285 290 294 298 304 310 316 318 316 311 301 285 272 261 254 252 255 258 258
Height
5918 5917 5917 5917 5917 5917 5917 5917 5917 5915 5914 5913 5911 5910 5909 5908 5907 5906 5904 5903 5902 5901 5900 5899 5899 5897 5896 5895 5894 5893 5892 5891 5891 5890 5890 5889 5889 5889 5889 5890 5890 5890 5890
5918 5918 5918 5918 5918 5917 5918 5917 5917 5916 5915 5914 5912 5911 5910 5909 5908 5907 5906 5904 5903 5902 5901 5900 5899 5899 5897 5896 5895 5894 5893 5892 5891 5891 5891 5890 5890 5889 5890 5890 5891 5891 5891
5917 5918 5918 5918 5918 5917 5917 5917 5917 5916 5915 5914 5913 5912 5911 5910 5909 5908 5907 5905 5904 5903 5902 5901 5900 5899 5898 5897 5896 5895 5893 5892 5892 5891 5891 5891 5890 5890 5890 5890 5891 5891 5892
5916 5917 5917 5917 5917 5917 5917 5917 5916 5916 5915 5914 5913 5912 5911 5910 5909 5909 5907 5906 5905 5903 5902 5901 5900 5898 5897 5897 5896 5895 5894 5893 5892 5891 5891 5891 5890 5890 5890 5890 5890 5891 5891
5915 5915 5916 5916 5916 5916 5915 5915 5915 5914 5914 5913 5912 5911 5910 5910 5909 5908 5907 5906 5905 5904 5902 5901 5899 5898 5897 5896 5895 5895 5894 5893 5892 5892 5891 5891 5890 5890 5890 5890 5890 5890 5890
5914 5914 5914 5914 5915 5914 5914 5914 5914 5913 5913 5912 5911 5910 5910 5909 5908 5907 5906 5905 5904 5903 5901 5900 5899 5897 5896 5895 5895 5894 5893 5893 5892 5892 5891 5891 5890 5890 5890 5890 5890 5890 5890
5914 5914 5914 5914 5913 5913 5913 5913 5912 5912 5911 5910 5910 5909 5908 5907 5907 5906 5905 5904 5903 5902 5901 5899 5898 5897 5896 5895 5894 5893 5892 5892 5891 5891 5891 5890 5890 5890 5890 5890 5890 5890 5890
5913 5913 5912 5912 5912 5912 5911 5911 5910 5910 5909 5908 5907 5906 5906 5905 5904 5903 5903 5902 5901 5900 5899 5898 5897 5896 5894 5893 5892 5891 5891 5890 5890 5890 5890 5890 5889 5889 5889 5889 5889 5889 5889
5912 5911 5911 5911 5910 5909 5909 5908 5907 5907 5906 5905 5904 5903 5903 5902 5901 5900 5899 5898 5898 5897 5896 5895 5895 5894 5893 5891 5890 5889 5888 5888 5888 5888 5888 5888 5888 5888 5888 5888 5888 5888 5888
5910 5910 5909 5909 5908 5907 5906 5905 5904 5903 5902 5901 5901 5900 5899 5899 5898 5897 5896 5894 5894 5893 5892 5891 5891 5890 5890 5888 5887 5886 5885 5884 5885 5885 5885 5885 5885 5886 5886 5886 5886 5886 5886
5907 5907 5907 5906 5904 5903 5902 5901 5900 5898 5897 5897 5896 5895 5895 5894 5894 5893 5891 5890 5889 5888 5887 5886 5886 5886 5885 5884 5883 5883 5882 5881 5881 5881 5882 5882 5882 5882 5883 5884 5884 5884 5885
5903 5903 5902 5902 5901 5899 5898 5896 5894 5893 5892 5891 5890 5889 5888 5888 5888 5887 5886 5884 5883 5882 5881 5880 5880 5880 5879 5879 5878 5877 5877 5877 5876 5876 5877 5878 5878 5878 5879 5880 5881 5882 5882
5899 5898 5897 5896 5895 5893 5892 5891 5889 5887 5886 5885 5883 5882 5881 5881 5880 5880 5879 5879 5877 5875 5874 5873 5872 5871 5871 5871 5870 5869 5870 5870 5870 5869 5870 5872 5872 5873 5874 5875 5876 5878 5879
5895 5893 5892 5890 5889 5887 5885 5883 5882 5881 5879 5878 5877 5875 5874 5873 5873 5873 5872 5871 5870 5869 5868 5867 5865 5863 5863 5862 5861 5861 5861 5861 5862 5861 5861 5863 5865 5866 5867 5869 5871 5872 5874
5890 5888 5887 5886 5884 5882 5880 5878 5876 5875 5873 5871 5870 5869 5867 5866 5866 5865 5864 5863 5862 5860 5860 5859 5858 5857 5855 5854 5853 5853 5853 5853 5854 5854 5855 5857 5857 5858 5859 5862 5864 5866 5868
5883 5882 5880 5879 5878 5876 5874 5872 5871 5869 5867 5865 5864 5862 5861 5860 5858 5857 5856 5856 5854 5853 5852 5852 5852 5850 5849 5848 5847 5846 5846 5847 5847 5847 5848 5849 5850 5851 5852 5854 5856 5858 5860
5876 5875 5873 5872 5871 5869 5868 5866 5865 5863 5861 5859 5857 5855 5854 5853 5852 5851 5850 5849 5848 5847 5847 5846 5845 5844 5843 5842 5841 5840 5840 5840 5840 5841 5841 5842 5843 5844 5845 5846 5848 5850 5852
5868 5867 5865 5864 5864 5863 5861 5860 5858 5857 5855 5853 5851 5849 5848 5846 5845 5844 5843 5842 5842 5841 5841 5840 5839 5838 5837 5836 5835 5834 5834 5834 5834 5835 5835 5836 5836 5836 5837 5838 5840 5841 5843
5857 5857 5856 5855 5855 5855 5854 5853 5851 5850 5848 5846 5844 5843 5841 5840 5839 5838 5837 5836 5836 5835 5835 5834 5834 5833 5831 5830 5829 5828 5828 5827 5827 5827 5828 5828 5829 5830 5830 5831 5832 5833 5835
5845 5846 5848 5847 5847 5847 5846 5846 5844 5843 5841 5839 5838 5837 5835 5833 5833 5832 5831 5831 5831 5830 5830 5829 5828 5827 5826 5824 5823 5822 5821 5820 5820 5820 5820 5821 5822 5823 5823 5824 5825 5826 5828
5830 5834 5838 5840 5841 5839 5839 5838 5837 5836 5834 5832 5831 5830 5829 5827 5827 5827 5826 5826 5826 5826 5825 5824 5824 5823 5821 5819 5817 5816 5814 5812 5812 5812 5812 5813 5815 5816 5816 5817 5818 5819 5820
5820 5822 5825 5830 5832 5832 5832 5831 5830 5829 5827 5826 5825 5823 5823 5822 5822 5822 5822 5822 5822 5821 5821 5820 5818 5817 5816 5813 5811 5809 5808 5806 5803 5803 5803 5804 5806 5808 5809 5810 5810 5811 5813
5806 5805 5815 5821 5824 5824 5824 5824 5823 5822 5820 5819 5818 5817 5817 5817 5817 5817 5818 5818 5817 5817 5816 5815 5813 5812 5810 5808 5805 5803 5801 5799 5796 5795 5794 5795 5797 5799 5800 5802 5803 5803 5805
5798 5801 5808 5814 5815 5816 5816 5815 5815 5815 5813 5812 5811 5811 5811 5811 5812 5812 5812 5812 5812 5811 5810 5809 5808 5806 5805 5803 5799 5796 5793 5791 5788 5787 5785 5785 5787 5789 5792 5793 5795 5796 5798
5804 5805 5805 5808 5808 5807 5807 5807 5807 5806 5806 5805 5804 5804 5804 5805 5806 5806 5806 5806 5806 5805 5804 5803 5802 5800 5799 5797 5795 5791 5788 5784 5780 5779 5778 5777 5777 5780 5782 5785 5786 5788 5791
5803 5802 5802 5802 5801 5800 5799 5799 5800 5799 5799 5798 5797 5797 5798 5798 5798 5799 5799 5799 5799 5798 5797 5796 5795 5794 5792 5791 5789 5786 5783 5779 5775 5771 5771 5769 5769 5771 5773 5777 5778 5780 5783